Theta_e
311 313 314 315 314 312 311 311 312 313 309 307 312 313 313 312 310 309 309 309 309 308 308 307 306 305 304 303 302 301 301 301 300 298 296 301 302 302 302 302 300 306 307 308
311 311 312 310 310 310 310 311 313 312 307 308 312 311 313 309 309 309 309 309 309 308 307 306 306 305 304 303 302 301 301 300 299 296 298 302 301 301 302 302 303 305 305 308
313 312 308 309 309 310 311 312 312 310 310 311 310 316 310 309 308 308 308 308 308 308 308 307 306 305 305 303 302 300 300 299 297 295 301 302 301 303 304 305 306 307 308 309
310 309 309 309 310 309 311 308 308 309 312 316 310 317 316 310 310 309 309 309 309 308 307 307 306 305 305 303 301 299 299 298 295 296 302 302 300 301 304 305 307 308 308 309
312 309 308 310 310 308 311 308 309 309 311 311 313 311 316 308 310 309 308 308 308 308 308 307 305 303 302 301 300 299 298 297 295 300 302 302 300 302 304 305 307 308 310 310
308 305 307 308 306 307 307 308 308 309 312 323 314 309 319 312 311 309 307 306 307 307 306 305 303 302 302 300 299 298 297 295 296 302 302 302 301 303 303 305 305 308 309 310
307 308 305 306 309 307 308 310 328 330 327 329 308 308 316 312 309 309 308 307 306 306 306 305 304 303 301 300 298 298 296 295 300 302 302 302 302 302 302 303 305 308 310 311
318 319 307 306 308 312 309 311 332 335 328 320 305 313 317 310 309 307 306 306 306 306 306 305 304 303 301 299 298 298 295 297 301 302 302 302 302 303 302 305 307 310 311 312
321 316 304 304 305 306 309 312 307 315 304 315 318 315 313 310 307 307 306 306 307 306 306 305 303 302 301 299 297 297 296 300 301 302 302 302 302 303 304 306 309 311 312 312
317 318 303 303 304 304 306 304 313 316 325 326 323 317 319 311 309 310 309 308 307 306 305 305 303 302 301 299 297 297 297 301 301 302 300 301 302 303 304 305 307 311 312 313
311 322 306 303 307 308 305 308 306 311 312 330 329 322 317 313 310 313 311 309 307 305 306 305 304 302 301 299 297 297 299 301 302 300 300 301 302 303 304 306 309 311 313 314
312 315 312 314 303 302 303 308 309 324 320 310 314 320 311 311 309 307 309 306 305 304 305 304 303 302 301 300 298 297 300 301 302 300 300 301 302 303 304 307 311 313 314 315
308 317 316 316 308 302 305 305 306 308 314 314 326 326 311 309 309 308 307 307 305 304 308 306 305 303 301 300 298 298 301 302 301 300 300 301 303 304 305 309 312 314 315 317
305 312 319 320 322 311 307 307 306 312 321 320 318 325 318 314 312 312 309 307 306 307 307 308 307 304 302 300 298 298 301 302 301 300 300 301 303 305 307 312 314 314 315 318
305 313 310 307 304 307 311 309 306 308 314 322 323 314 316 317 316 312 309 308 308 308 308 308 308 305 303 301 298 299 302 303 301 301 302 302 303 305 309 312 314 315 316 318
303 311 307 310 303 304 308 309 307 307 307 308 309 310 312 312 312 310 308 308 309 310 310 310 308 306 304 301 299 300 302 303 302 302 302 303 303 306 310 312 314 316 316 317
304 309 311 320 303 309 313 307 307 307 308 310 310 315 313 313 312 311 312 311 311 310 310 308 305 307 304 302 299 300 302 303 303 303 303 303 306 309 311 312 313 315 317 316
305 309 313 317 310 319 315 308 308 309 308 307 311 312 314 314 312 311 310 310 310 309 307 304 304 307 303 302 298 301 303 303 303 303 303 305 309 310 311 312 312 314 315 316
304 307 316 315 316 316 315 308 310 310 314 311 308 311 312 311 309 311 311 309 309 306 305 304 306 305 303 301 299 301 303 303 303 303 303 304 309 310 311 312 312 314 314 314
303 305 310 311 315 316 315 313 308 310 316 316 310 311 312 308 314 317 308 306 305 306 306 305 305 303 304 299 299 301 303 303 303 303 304 303 306 309 310 311 312 312 311 311
306 307 309 311 315 318 315 310 310 316 319 313 312 312 312 310 313 307 306 305 304 305 306 304 302 303 303 299 299 300 302 303 303 304 304 304 304 307 310 311 310 311 311 311
310 312 313 312 316 317 306 308 315 317 311 312 311 311 310 310 309 305 305 304 304 303 306 302 302 303 301 299 299 299 301 303 303 304 304 304 305 305 305 307 308 309 309 308
312 312 314 313 315 310 307 311 313 316 315 312 313 312 311 309 306 306 305 304 304 303 305 301 303 302 300 299 299 299 299 301 302 303 304 304 304 304 305 305 306 306 307 306
304 304 310 312 312 308 309 312 312 312 313 314 312 312 310 309 309 308 307 304 304 303 304 301 302 301 299 299 299 299 298 298 300 301 303 303 303 304 304 304 304 305 305 305
310 305 308 310 308 307 307 310 313 313 312 310 311 312 311 310 310 311 310 306 304 302 304 300 301 301 300 298 299 298 298 298 297 296 298 301 301 302 302 303 303 303 303 303
308 309 310 312 311 312 313 313 314 310 311 311 311 310 310 311 310 310 310 309 306 302 303 302 299 299 299 298 298 299 298 298 298 297 296 295 295 296 296 297 298 297 296 296
Wind_Speed
4 6 9 8 6 5 5 6 9 8 4 4 10 17 16 18 11 11 14 18 18 14 9 8 9 10 10 11 11 11 12 13 15 16 14 13 9 8 6 7 6 6 6 8
4 9 2 3 2 3 4 6 9 5 1 3 12 22 18 2 2 2 3 4 9 11 9 9 8 9 9 8 10 12 12 12 14 14 13 13 9 5 4 4 3 6 6 6
9 2 3 3 4 5 6 6 5 4 9 6 11 11 5 4 3 3 3 3 7 10 10 9 7 5 6 7 9 11 11 11 13 12 11 9 6 4 4 4 3 4 6 7
6 5 4 4 6 5 7 2 1 3 6 4 5 7 5 6 5 5 6 7 8 9 9 7 6 4 5 8 10 10 11 10 11 10 9 7 5 1 2 3 3 3 6 8
3 6 5 6 1 3 3 1 1 2 2 4 5 4 2 5 7 8 7 6 7 8 8 6 5 7 9 9 9 9 10 9 9 8 7 5 4 2 1 1 3 6 5 7
3 1 1 2 4 2 7 2 1 1 0 1 4 2 6 4 5 9 7 7 6 6 6 5 7 7 8 9 8 8 8 8 7 7 5 3 2 1 1 2 3 5 7 6
2 4 2 3 4 3 3 4 3 3 2 2 4 3 11 3 5 5 8 8 7 6 6 6 6 6 6 8 7 7 7 6 5 6 6 3 2 3 2 4 4 3 6 5
8 5 9 9 3 2 8 3 3 4 2 2 3 5 2 1 3 4 5 5 6 7 7 8 7 7 7 7 6 5 4 5 5 5 5 3 2 3 3 3 3 2 6 8
6 2 3 0 1 1 4 5 2 6 1 2 3 5 10 5 6 7 8 9 10 8 8 8 8 7 7 6 5 4 2 4 5 6 5 2 3 2 2 2 2 2 7 7
5 3 1 2 1 1 3 1 3 0 3 4 3 5 6 4 10 10 9 11 9 8 7 7 8 8 8 6 6 3 2 3 6 6 3 2 2 1 1 1 3 3 3 5
4 1 2 2 8 9 5 4 2 1 1 3 3 3 2 1 8 11 9 9 7 7 6 6 8 9 9 6 5 3 1 3 6 4 2 1 1 2 2 3 1 2 1 4
7 4 4 3 1 2 4 3 7 3 5 1 1 6 2 2 2 3 6 7 6 7 6 7 8 10 9 7 5 2 1 2 4 2 2 2 3 5 5 5 3 3 5 3
9 4 4 1 1 0 6 7 5 3 2 6 5 4 1 2 4 9 10 10 9 11 14 9 9 10 9 8 5 3 1 3 3 3 2 3 7 7 8 8 5 6 7 7
4 3 5 10 1 7 7 10 14 5 3 6 8 3 4 5 6 6 9 10 11 17 11 10 11 11 11 11 7 4 1 3 4 5 4 7 11 11 11 11 8 10 11 12
3 3 3 2 2 4 3 10 20 13 9 7 4 11 10 7 8 7 9 11 12 8 12 14 13 14 13 13 10 7 4 3 5 6 7 11 14 13 11 14 13 14 14 16
3 1 1 3 0 1 5 7 17 16 2 6 1 10 12 15 13 9 11 11 14 13 11 13 14 15 16 16 12 9 6 5 6 7 10 13 14 14 13 14 16 16 15 17
5 5 3 3 1 2 11 13 18 12 7 9 8 16 6 5 8 9 10 11 15 13 10 12 14 15 16 19 15 12 9 9 9 9 12 15 16 14 16 17 15 18 18 16
4 4 3 1 1 10 4 4 20 20 15 18 8 10 6 4 7 11 16 16 14 12 9 9 11 16 19 22 19 16 12 11 11 12 14 17 17 15 15 17 16 16 17 19
6 4 2 5 7 12 4 4 10 12 15 18 21 22 16 7 5 22 17 15 12 9 7 8 13 16 24 25 22 18 16 14 14 14 14 18 19 17 16 16 15 16 16 16
6 1 3 2 9 15 1 11 16 6 10 7 21 19 13 9 5 4 8 11 8 6 5 12 15 18 26 26 24 21 18 16 15 15 15 16 18 17 16 15 15 15 14 14
5 4 10 11 8 6 2 4 24 13 3 12 26 20 15 7 5 8 12 8 7 6 9 14 16 24 27 25 25 22 20 18 17 17 16 16 16 17 17 13 11 10 8 5
12 9 9 6 8 19 7 9 12 6 3 9 16 20 21 14 12 10 9 8 7 7 12 15 21 28 26 24 24 23 21 20 19 18 17 17 16 15 14 14 12 11 9 7
8 11 12 11 7 2 23 11 32 13 15 15 20 23 23 21 16 12 11 9 7 8 14 17 23 26 26 24 24 24 23 21 20 20 18 17 17 16 15 14 14 13 12 10
5 1 8 1 16 5 21 22 24 27 19 21 23 25 26 23 17 15 12 9 10 10 15 18 23 26 27 26 24 23 23 22 21 20 19 18 16 16 15 14 13 12 10 9
10 11 9 14 4 4 11 27 28 29 24 22 22 24 25 21 19 17 14 11 11 11 16 18 22 23 25 26 25 25 24 23 23 22 20 19 17 16 14 13 12 11 10 9
11 8 8 11 10 16 14 29 35 32 34 26 27 26 26 23 20 20 16 12 11 11 16 19 21 22 23 24 26 26 26 24 23 23 23 21 19 17 15 14 13 12 12 11
Wind_Direction
192 225 218 236 239 300 283 276 276 290 90 292 275 286 289 293 294 274 267 251 241 231 218 221 244 270 287 297 305 307 303 309 316 320 319 316 312 304 285 262 238 232 246 232
195 236 60 88 174 241 251 271 278 275 46 297 308 294 294 230 250 276 318 188 191 185 200 216 246 271 289 288 303 307 303 314 316 319 319 318 316 302 277 247 234 232 226 221
230 49 125 195 198 209 235 255 296 291 317 247 303 273 176 170 199 197 211 170 177 188 200 210 239 261 265 286 297 305 304 313 317 318 322 317 329 347 347 309 251 212 202 202
248 127 183 202 234 213 260 84 168 300 339 314 24 293 206 170 188 199 201 211 200 201 210 216 230 250 265 279 305 307 310 319 319 319 322 320 313 212 301 316 297 226 216 208
181 176 168 216 244 191 52 137 70 316 339 321 163 251 185 163 208 186 196 199 207 213 218 223 238 254 276 297 311 311 316 323 325 323 324 326 317 302 339 282 269 251 241 202
74 41 258 36 104 64 126 192 160 155 272 292 119 254 278 182 207 162 177 203 202 206 213 222 251 275 289 301 313 315 319 325 327 322 321 313 288 213 251 268 286 255 235 213
136 178 147 182 152 123 214 232 324 333 14 248 131 239 262 223 148 157 182 197 206 216 227 229 253 276 279 300 315 318 324 324 329 326 323 309 280 249 266 285 279 283 242 204
167 242 182 169 261 211 189 260 193 239 272 355 149 238 261 34 132 168 191 196 210 225 237 243 249 260 274 292 306 318 328 323 327 306 311 321 262 266 266 267 264 253 229 214
163 167 110 117 310 269 174 215 32 104 103 282 230 248 240 179 196 189 207 213 228 234 239 246 256 255 272 293 306 315 337 324 313 307 312 323 295 272 316 304 252 215 235 238
195 112 347 96 239 199 267 133 121 340 168 251 248 270 264 174 211 195 202 213 223 229 236 246 255 252 264 277 301 318 1 317 313 329 347 11 305 231 160 264 284 229 235 263
125 147 114 150 206 182 167 190 209 98 248 221 288 259 91 214 216 194 198 200 202 223 241 252 245 251 256 266 285 298 355 354 323 1 14 18 215 165 109 50 44 63 337 300
173 99 158 186 36 323 312 213 193 199 192 207 8 269 184 142 178 209 190 198 215 229 279 268 241 251 248 252 269 283 335 5 339 57 41 71 142 145 116 78 71 42 31 54
177 189 120 165 196 177 224 198 219 107 90 195 161 251 153 213 212 227 223 227 229 243 299 262 249 245 233 235 243 249 311 9 43 86 110 118 130 131 105 89 91 48 52 98
192 166 200 234 160 136 185 199 191 177 152 168 227 277 229 255 233 218 228 243 240 275 263 256 250 242 223 219 223 221 185 38 79 94 100 129 129 126 112 101 89 63 67 111
254 214 185 169 311 299 214 176 184 192 198 179 227 216 240 243 247 231 271 265 259 248 267 264 258 241 221 210 209 202 168 99 99 99 103 128 132 129 119 111 97 85 84 111
216 235 108 267 162 275 272 210 194 206 340 300 27 273 219 255 258 243 262 260 253 268 264 252 244 231 218 203 200 191 168 137 124 114 117 129 130 124 123 123 113 98 103 103
184 158 130 248 351 271 258 189 189 196 206 199 205 240 160 212 227 230 252 248 262 263 258 259 244 221 210 194 192 182 168 149 138 128 129 131 127 123 125 126 118 115 111 126
191 164 151 171 126 229 282 189 184 192 205 212 260 253 210 225 258 264 262 259 259 257 251 245 224 198 192 187 184 179 166 155 150 139 140 140 134 130 123 122 127 120 120 117
201 178 219 223 209 283 247 159 163 184 236 211 221 246 246 268 302 281 258 240 229 214 255 227 192 190 182 183 183 175 166 159 152 146 143 149 145 134 125 130 130 127 122 117
144 225 234 158 228 237 277 172 194 168 250 206 202 236 240 151 244 248 179 165 182 198 238 192 186 183 178 181 183 176 168 163 158 150 145 148 155 146 137 131 126 122 116 116
175 177 208 219 250 279 260 118 146 177 195 203 194 217 169 192 213 161 170 199 211 198 189 186 186 176 176 181 182 178 170 164 158 155 150 147 149 159 163 159 152 149 149 140
182 187 210 199 230 246 128 138 184 171 234 193 190 192 193 189 183 174 184 204 196 184 185 189 180 174 175 181 182 181 174 168 163 159 157 154 151 152 155 163 172 177 176 171
208 207 210 198 239 134 184 184 205 210 217 202 193 193 195 183 184 180 178 186 195 185 181 189 181 176 174 182 185 182 178 176 170 166 165 164 161 161 160 159 160 161 161 159
230 70 231 97 229 202 202 221 220 223 225 210 198 187 189 186 186 179 177 183 193 189 180 185 184 181 178 181 186 181 186 181 179 174 172 171 171 170 170 169 168 169 170 168
213 152 207 246 209 31 244 221 227 230 220 205 192 193 192 191 190 186 183 178 176 188 185 185 189 192 184 183 183 185 188 187 184 181 180 179 180 180 179 177 177 176 178 182
210 201 206 242 174 219 232 228 227 230 214 202 195 192 193 197 200 193 186 180 176 190 186 186 188 186 192 185 188 192 190 193 193 190 183 182 183 186 187 187 189 189 189 189